[[{"header":{"parameterUnit":"m.s-1","parameterCategory":1,"la1":30.2992,"la2":30.254,"lo1":-89.0895,"lo2":-89.0443,"dy":0.0025,"dx":0.0025,"nx":19,"ny":19,"refTime":"2026-04-25T03:00:00:Z","depth":0,"parameterNumber":2,"parameterNumberName":"U-component_of_WINDS"},"data":[0,0,0,2.0294,2.0292,2.0213,2.0213,2.0121,2.0121,0,0,0,0,0,0,0,0,0,0,0,2.0322,2.0322,2.0294,2.0292,2.0213,2.0213,2.0121,2.0121,0,0,0,0,0,0,0,0,0,0,0,2.0323,2.0322,2.0322,2.0292,2.0213,2.0213,2.0122,2.0178,0,0,0,0,0,0,0,0,0,0,2.0253,2.0284,2.0322,2.0322,2.0291,2.0213,2.0213,2.018,2.0174,2.0161,0,2.015,0,2.0134,2.0115,2.0115,0,0,0,2.0288,2.0289,2.0264,2.0321,2.0291,2.0213,2.0248,2.0177,2.017,2.0153,2.0149,2.0145,2.0133,2.0114,2.0114,2.0053,2.0053,0,0,2.0292,2.0311,2.0268,2.0259,2.0272,2.025,2.0245,2.0173,2.0169,2.0149,2.0143,2.0131,2.0114,2.0113,2.0053,2.0053,0,0,0,2.0308,2.0314,2.029,2.0263,2.0249,2.0248,2.0242,2.0172,2.0163,2.0142,2.013,2.0113,2.0112,2.0053,2.0053,2.0067,0,0,0,2.031,2.0323,2.0292,2.0302,2.025,2.0209,2.0244,2.0168,2.0159,2.0131,2.0113,2.0112,2.0053,2.0053,2.0067,2.0069,0,0,0,2.0326,2.0324,2.0315,2.0303,2.027,2.021,2.0196,2.0166,2.0152,2.0115,2.0111,2.0053,2.0053,2.0066,2.0069,2.0059,0,0,0,2.0347,2.0326,2.0315,2.0288,2.0271,2.022,2.0197,2.0157,2.0126,2.0113,2.0053,2.0053,2.0066,2.0068,2.0059,2.0054,2.0053,0,0,2.0331,2.0325,2.0307,2.0296,2.0251,2.023,2.0188,2.0141,2.0121,2.0077,2.0075,2.0067,2.0069,2.0059,2.0047,2.0047,0,0,0,2.0308,2.0296,2.028,2.0253,2.0219,2.019,2.015,2.0134,2.0096,2.0102,2.006,2.0061,2.0055,2.0051,2.0051,2.0045,2.0053,2.0053,2.0053,2.0308,2.0286,2.0256,2.0225,2.0199,2.016,2.0137,2.0109,2.0091,2.0082,2.0068,2.0064,2.006,2.006,2.0054,2.0064,2.0064,2.0064,2.0064,2.0282,2.0261,2.0243,2.0207,2.0184,2.0154,2.0117,2.0106,2.0076,2.0071,2.0064,2.006,2.0061,2.0054,2.0065,2.0065,2.0065,2.0065,2.0065,2.0278,2.0264,2.0247,2.0208,2.0181,2.0151,2.0124,2.0103,2.0084,2.0077,2.0061,2.0061,2.0058,2.0072,2.0072,2.0072,2.0072,2.0072,2.0072,2.028,2.0261,2.024,2.0206,2.0188,2.0162,2.0126,2.0108,2.0082,2.007,2.0069,2.0054,2.0065,2.0068,2.0071,2.0071,2.0071,2.0071,2.0072,2.0259,2.0262,2.0229,2.0212,2.0172,2.0148,2.0125,2.0091,2.0073,2.0061,2.0048,2.0061,2.0052,2.0052,2.0054,2.0053,2.0053,2.0053,2.0053,2.0255,2.025,2.0215,2.0189,2.0161,2.0138,2.0104,2.0079,2.0051,2.004,2.0038,2.004,2.0041,2.0032,2.0032,2.0033,2.0027,2.0027,2.0027,2.024,2.0233,2.0207,2.0183,2.0152,2.0126,2.0095,2.0066,2.0036,2.0026,2.003,2.0031,2.0034,2.0036,2.0022,2.0023,2.0025,0,0]},{"header":{"parameterUnit":"m.s-1","parameterCategory":1,"la1":30.2992,"la2":30.254,"lo1":-89.0895,"lo2":-89.0443,"dy":0.0025,"dx":0.0025,"nx":19,"ny":19,"refTime":"2026-04-25T03:00:00:Z","depth":0,"parameterNumber":3,"parameterNumberName":"V-component_of_WINDS"},"data":[0,0,0,3.0372,3.0374,3.0471,3.0471,3.0589,3.059,0,0,0,0,0,0,0,0,0,0,0,3.034,3.034,3.0372,3.0375,3.0471,3.0471,3.0589,3.059,0,0,0,0,0,0,0,0,0,0,0,3.0339,3.034,3.0341,3.0375,3.0471,3.0471,3.0589,3.0518,0,0,0,0,0,0,0,0,0,0,3.0426,3.0391,3.034,3.0341,3.0375,3.0471,3.0471,3.0515,3.0523,3.0543,0,3.0559,0,3.0577,3.0598,3.0598,0,0,0,3.0378,3.0384,3.0414,3.0341,3.0376,3.047,3.0428,3.0519,3.0528,3.0553,3.0561,3.0566,3.0579,3.0599,3.0599,3.0706,3.0706,0,0,3.0373,3.0355,3.0408,3.042,3.0403,3.0425,3.0431,3.0525,3.0532,3.0562,3.0569,3.0581,3.0599,3.06,3.0706,3.0706,0,0,0,3.0355,3.0351,3.0379,3.0415,3.0432,3.0428,3.0435,3.0528,3.0539,3.057,3.0582,3.06,3.0601,3.0705,3.0706,3.0705,0,0,0,3.0352,3.0341,3.0376,3.0366,3.0431,3.0481,3.0436,3.0532,3.0543,3.0581,3.06,3.0602,3.0705,3.0706,3.0705,3.0708,0,0,0,3.0335,3.0339,3.0351,3.0365,3.0406,3.048,3.0496,3.0535,3.0551,3.0598,3.0603,3.0705,3.0705,3.0704,3.0707,3.0732,0,0,0,3.0311,3.0349,3.0351,3.0398,3.0405,3.0479,3.0496,3.0552,3.0593,3.0601,3.0705,3.0706,3.0704,3.0706,3.0731,3.0749,3.0754,0,0,3.0348,3.0352,3.0382,3.0386,3.0456,3.0466,3.0536,3.059,3.0611,3.0674,3.0676,3.0705,3.0707,3.0731,3.0794,3.0798,0,0,0,3.0387,3.0408,3.043,3.0468,3.0511,3.0549,3.0595,3.0616,3.067,3.0639,3.0721,3.0723,3.0738,3.0747,3.0751,3.0766,3.0709,3.0709,3.0709,3.0413,3.0439,3.0489,3.0527,3.0565,3.0613,3.0646,3.0683,3.0697,3.0716,3.0734,3.0769,3.0779,3.0782,3.0797,3.0746,3.0746,3.0746,3.0746,3.0469,3.0503,3.0524,3.058,3.0608,3.0656,3.0705,3.0714,3.0764,3.0757,3.0771,3.0761,3.0787,3.0801,3.0746,3.0746,3.0746,3.0746,3.0746,3.0488,3.0509,3.0534,3.0595,3.0638,3.0677,3.0724,3.0748,3.0771,3.0785,3.0808,3.0808,3.0811,3.0795,3.0795,3.0795,3.0795,3.0795,3.0795,3.0498,3.0527,3.0563,3.0614,3.0643,3.0685,3.0736,3.0766,3.0805,3.0819,3.082,3.0833,3.0784,3.0771,3.0797,3.0797,3.0797,3.0796,3.0796,3.0544,3.0538,3.0594,3.0624,3.0687,3.0731,3.0762,3.0821,3.0849,3.0873,3.0884,3.0844,3.085,3.0847,3.0836,3.0878,3.0878,3.0878,3.0878,3.056,3.0566,3.063,3.0676,3.0724,3.0759,3.0824,3.0866,3.0908,3.0928,3.0926,3.0914,3.091,3.0919,3.0914,3.0905,3.0962,3.0963,3.0963,3.0591,3.0603,3.0652,3.0694,3.0746,3.0791,3.0854,3.0907,3.0954,3.0967,3.0944,3.0941,3.0922,3.0915,3.0925,3.0918,3.0901,0,0]}]]